Weather History for Guymon, OK

Change the Weather History Date:

Monday, December 31, 2012

  Actual Average Record
Temperature  
Mean Temperature 28 °F 34 °F  
Max Temperature 36 °F 47 °F 67 °F (2005)
Min Temperature 20 °F 21 °F 3 °F (2010)
Degree Days  
Heating Degree Days 37 31  
Month to date heating degree days 843 925  
Since 1 July heating degree days 1576 1817  
Cooling Degree Days 0 0  
Month to date cooling degree days 0 0  
Year to date cooling degree days 1917 1482  
Moisture  
Dew Point 23 °F    
Average Humidity 85    
Maximum Humidity 96    
Minimum Humidity 74    
Precipitation  
Precipitation 0.26 in 0.02 in 0.26 in (2012)
Month to date precipitation 0.97 0.64  
Year to date precipitation 11.76 19.30  
Snow  
Snow 2.00 in - - ()
Month to date snowfall 3.2  
Since 1 July snowfall 3.2  
Snow Depth 2.00 in    
Sea Level Pressure  
Sea Level Pressure 29.97 in    
Wind  
Wind Speed 13 mph (NNW)    
Max Wind Speed 26 mph    
Max Gust Speed 32 mph    
Visibility 6 miles    
Events Rain , Snow    
T = Trace of Precipitation, MM = Missing Value Source: NWS Daily Summary

Daily Weather History Graph

Daily Weather History Graph

Search for Another Location

Airport:

Trip Planner

Search our weather history database for the weather conditions in past years. The results will help you decide how hot, cold, wet, or windy it might be!

Date:

Astronomy

Dec. 31, 2012 Rise Set
Actual Time 7:58 AM CST 5:40 PM CST
Civil Twilight 7:29 AM CST 6:09 PM CST
Nautical Twilight 6:57 AM CST 6:41 PM CST
Astronomical Twilight 6:25 AM CST 7:12 PM CST
Moon 9:07 PM CST (12/31) 9:46 AM CST (12/31)
Length of Visible Light 10h 39m
Length of Day
9h 42m
Waning Gibbous, 90% of the Moon is Illuminated
Dec 31
Waning Gibbous
Jan 4
Last Quarter
Jan 11
New
Jan 18
First Quarter
Jan 26
Full

Hourly Weather History & Observations

Time (CST) Temp. Windchill Dew Point Humidity Pressure Visibility Wind Dir Wind Speed Gust Speed Precip Events Conditions
12:53 AM 36.0 °F 26.3 °F 28.0 °F 73% 29.93 in 10.0 mi South 16.1 mph - 0.00 in Rain Light Rain
1:53 AM 34.0 °F 29.8 °F 30.9 °F 89% 29.93 in 9.0 mi SSW 4.6 mph - 0.03 in Rain Light Rain
2:48 AM 33.8 °F 29.6 °F 32.0 °F 93% 29.92 in 6.0 mi South 4.6 mph - 0.05 in Snow Light Snow
2:53 AM 33.1 °F 27.7 °F 32.0 °F 96% 29.93 in 5.0 mi South 5.8 mph - 0.05 in Snow Light Snow
3:48 AM 33.8 °F 28.6 °F 32.0 °F 93% 29.92 in 4.0 mi SSW 5.8 mph - 0.02 in Snow Light Snow
3:53 AM 33.1 °F 26.9 °F 32.0 °F 96% 29.92 in 3.0 mi SSW 6.9 mph - 0.02 in Snow Light Snow
4:00 AM 33.8 °F 28.6 °F 32.0 °F 93% 29.92 in 2.5 mi SW 5.8 mph - 0.01 in Snow Light Snow
4:20 AM 33.8 °F 27.0 °F 30.2 °F 87% 29.91 in 1.8 mi WSW 8.1 mph - 0.03 in Snow Light Snow
4:27 AM 33.8 °F 28.6 °F 30.2 °F 87% 29.91 in 2.0 mi WSW 5.8 mph - 0.04 in Snow Light Snow
4:37 AM 33.8 °F 27.0 °F 30.2 °F 87% 29.91 in 2.0 mi West 8.1 mph - 0.04 in Snow Light Snow
4:53 AM 32.0 °F 25.6 °F 30.9 °F 96% 29.92 in 2.0 mi West 6.9 mph - 0.05 in Snow Light Snow
5:00 AM 32.0 °F 24.2 °F 30.2 °F 93% 29.91 in 1.5 mi West 9.2 mph - 0.01 in Snow Light Snow
5:08 AM 32.0 °F 23.6 °F 28.4 °F 87% 29.91 in 1.8 mi WNW 10.4 mph - 0.01 in Snow Light Snow
5:15 AM 30.2 °F 20.2 °F 28.4 °F 93% 29.91 in 2.5 mi West 12.7 mph - 0.01 in Snow Light Snow
5:23 AM 30.2 °F 19.8 °F 28.4 °F 93% 29.89 in 3.0 mi WNW 13.8 mph - 0.02 in Snow Light Snow
5:38 AM 30.2 °F 19.8 °F 26.6 °F 86% 29.88 in 1.8 mi NW 13.8 mph - 0.02 in Snow Light Snow
5:53 AM 28.9 °F 17.7 °F 27.0 °F 92% 29.90 in 1.5 mi NW 15.0 mph - 0.05 in Snow Light Snow
5:59 AM 28.4 °F 17.5 °F 26.6 °F 93% 29.88 in 3.0 mi NW 13.8 mph - 0.00 in Snow Light Snow
6:06 AM 28.4 °F 18.0 °F 26.6 °F 93% 29.88 in 4.0 mi NW 12.7 mph - 0.00 in Snow Light Snow
6:20 AM 28.4 °F 19.7 °F 26.6 °F 93% 29.89 in 7.0 mi NW 9.2 mph - 0.00 in Snow Light Snow
6:32 AM 28.4 °F 18.5 °F 26.6 °F 93% 29.89 in 10.0 mi NW 11.5 mph - 0.00 in   Overcast
6:53 AM 28.9 °F 19.8 °F 26.1 °F 89% 29.91 in 3.0 mi NW 10.4 mph - 0.00 in Snow Light Snow
7:15 AM 28.4 °F 18.0 °F 26.6 °F 93% 29.88 in 3.0 mi NNW 12.7 mph - 0.00 in Snow Light Snow
7:22 AM 28.4 °F 19.7 °F 26.6 °F 93% 29.89 in 3.0 mi NW 9.2 mph - 0.00 in Snow Light Snow
7:40 AM 28.4 °F 18.0 °F 24.8 °F 86% 29.89 in 2.5 mi NNW 12.7 mph - 0.01 in Snow Light Snow
7:53 AM 28.0 °F 17.5 °F 25.0 °F 88% 29.91 in 2.0 mi NW 12.7 mph - 0.02 in Snow Light Snow
8:36 AM 28.4 °F 16.6 °F 24.8 °F 86% 29.90 in 1.5 mi NW 16.1 mph - 0.00 in Snow Light Snow
8:53 AM 27.0 °F 14.7 °F 25.0 °F 92% 29.94 in 1.2 mi NNW 16.1 mph - 0.01 in Snow Light Snow
9:20 AM 26.6 °F 13.4 °F 24.8 °F 93% 29.91 in 1.5 mi NNW 18.4 mph - 0.01 in Snow Light Snow
9:36 AM 26.6 °F 13.8 °F 24.8 °F 93% 29.91 in 1.0 mi North 17.3 mph 25.3 mph 0.01 in Snow Light Snow
9:53 AM 27.0 °F 15.2 °F 23.0 °F 85% 29.95 in 1.8 mi NNW 15.0 mph - 0.01 in Snow Light Snow
10:01 AM 26.6 °F 13.8 °F 23.0 °F 86% 29.94 in 2.0 mi NW 17.3 mph - 0.00 in Snow Light Snow
10:20 AM 26.6 °F 13.4 °F 23.0 °F 86% 29.95 in 2.0 mi NNW 18.4 mph - 0.00 in Snow Light Snow
10:49 AM 26.6 °F 13.1 °F 21.2 °F 80% 29.95 in 1.2 mi NNW 19.6 mph 25.3 mph 0.00 in Snow Light Snow
10:53 AM 26.1 °F 12.7 °F 21.9 °F 84% 29.98 in 1.2 mi NNW 18.4 mph 25.3 mph 0.00 in Snow Light Snow
11:20 AM 26.6 °F 12.7 °F 21.2 °F 80% 29.96 in 2.0 mi NNW 20.7 mph - 0.00 in Snow Light Snow
11:37 AM 26.6 °F 12.4 °F 21.2 °F 80% 29.97 in 4.0 mi NNW 21.9 mph 26.5 mph 0.00 in Snow Light Snow
11:46 AM 26.6 °F 13.1 °F 21.2 °F 80% 29.97 in 5.0 mi NNW 19.6 mph - 0.00 in Snow Light Snow
11:53 AM 26.1 °F 12.3 °F 21.0 °F 81% 29.99 in 7.0 mi NNW 19.6 mph - 0.00 in   Overcast
12:53 PM 25.0 °F 9.9 °F 19.9 °F 81% 29.97 in 10.0 mi NNW 23.0 mph - N/A   Overcast
1:03 PM 24.8 °F 10.7 °F 19.4 °F 80% 29.94 in 10.0 mi NNW 19.6 mph 25.3 mph N/A   Overcast
1:17 PM 24.8 °F 10.3 °F 19.4 °F 80% 29.94 in 10.0 mi NNW 20.7 mph 27.6 mph N/A   Overcast
1:25 PM 24.8 °F 10.0 °F 19.4 °F 80% 29.93 in 10.0 mi NNW 21.9 mph 26.5 mph N/A   Overcast
1:34 PM 24.8 °F 10.0 °F 19.4 °F 80% 29.93 in 10.0 mi NNW 21.9 mph - N/A   Overcast
1:42 PM 24.8 °F 10.0 °F 19.4 °F 80% 29.93 in 10.0 mi NNW 21.9 mph - N/A   Overcast
1:53 PM 25.0 °F 10.2 °F 19.0 °F 78% 29.97 in 10.0 mi North 21.9 mph - N/A   Overcast
2:00 PM 24.8 °F 10.3 °F 19.4 °F 80% 29.93 in 10.0 mi NNW 20.7 mph - N/A   Overcast
2:53 PM 25.0 °F 10.2 °F 19.0 °F 78% 29.99 in 10.0 mi North 21.9 mph - N/A   Overcast
3:17 PM 24.8 °F 11.5 °F 19.4 °F 80% 29.96 in 10.0 mi North 17.3 mph - N/A   Overcast
3:53 PM 24.1 °F 10.6 °F 18.0 °F 77% 30.01 in 10.0 mi North 17.3 mph - N/A   Overcast
4:15 PM 24.8 °F 12.9 °F 17.6 °F 74% 29.98 in 10.0 mi North 13.8 mph - N/A   Overcast
4:53 PM 24.1 °F 10.6 °F 18.0 °F 77% 30.03 in 10.0 mi North 17.3 mph - N/A   Mostly Cloudy
5:16 PM 21.2 °F 8.3 °F 17.6 °F 86% 29.99 in 10.0 mi North 13.8 mph - N/A   Partly Cloudy
5:53 PM 19.9 °F 10.1 °F 16.0 °F 85% 30.08 in 10.0 mi NNW 8.1 mph - N/A   Scattered Clouds
6:04 PM 19.4 °F 9.5 °F 15.8 °F 86% 30.03 in 10.0 mi NNW 8.1 mph - N/A   Mostly Cloudy
6:53 PM 21.0 °F 9.3 °F 16.0 °F 81% 30.10 in 10.0 mi NNW 11.5 mph - N/A   Overcast
7:14 PM 21.2 °F 10.1 °F 17.6 °F 86% 30.05 in 10.0 mi North 10.4 mph - N/A   Overcast
7:24 PM 21.2 °F 10.1 °F 15.8 °F 80% 30.05 in 10.0 mi North 10.4 mph - N/A   Overcast
7:53 PM 21.0 °F 12.4 °F 17.1 °F 85% 30.13 in 10.0 mi North 6.9 mph - N/A   Overcast
8:18 PM 21.2 °F 11.7 °F 17.6 °F 86% 30.07 in 2.5 mi North 8.1 mph - 0.00 in Snow Light Snow
8:28 PM 21.2 °F 10.1 °F 17.6 °F 86% 30.07 in 2.0 mi North 10.4 mph - 0.01 in Snow Light Snow
8:38 PM 21.2 °F 10.9 °F 17.6 °F 86% 30.07 in 3.0 mi North 9.2 mph - 0.01 in Snow Light Snow
8:51 PM 21.2 °F 11.7 °F 17.6 °F 86% 30.09 in 2.5 mi North 8.1 mph - 0.01 in Snow Light Snow
8:53 PM 21.0 °F 11.4 °F 17.1 °F 85% 30.16 in 2.5 mi North 8.1 mph - 0.01 in Snow Light Snow
9:00 PM 21.2 °F 12.6 °F 17.6 °F 86% 30.09 in 4.0 mi North 6.9 mph - 0.00 in Snow Light Snow
9:15 PM 21.2 °F 12.6 °F 17.6 °F 86% 30.09 in 6.0 mi North 6.9 mph - 0.00 in Snow Light Snow
10:53 PM 19.9 °F 9.3 °F 16.0 °F 85% 30.18 in 10.0 mi North 9.2 mph - 0.01 in   Overcast
11:05 PM 19.4 °F 8.6 °F 15.8 °F 86% 30.11 in 10.0 mi North 9.2 mph - N/A   Overcast
11:53 PM 21.0 °F 13.4 °F 17.1 °F 85% 30.17 in 10.0 mi North 5.8 mph - N/A   Overcast